User: anonymous
Location: *
(40.4270°N, 9.4940°E)
Time: 16:00:13
(UTC+02:00)
Language:

ATLAS 5 CENTAUR R/B - Orbit

View from above orbital plane
View from above orbital plane
View from above satellite
View from above satellite

Ground track
Ground track

The orbit data is extracted from the following two-line orbital elements,

1 31702U 07027B   14260.03213323 0.00000700  00000-0  29866-3 0    03
2 31702  63.3790 266.1898 0161000 350.9612   9.0387 14.18171171    06
Epoch (UTC): 17 September 2014 00:46:16
Eccentricity: 0.0161000
inclination: 63.3790°
perigee height: 715 km
apogee height: 947 km
right ascension of ascending node: 266.1898°
argument of perigee: 350.9612°
revolutions per day: 14.18171171
mean anomaly at epoch: 9.0387°
orbit number at epoch: 0

The dashed part of the orbit path shows where the satellite is in the earth's shadow,  

DLR